Tracking 31027 objects as of 19-Jul-2025
HD Live streaming from Space Station
objects crossing your sky now

STARLINK-5193

Track STARLINK-5193 now!
10-day predictions
STARLINK-5193 is classified as:


NORAD ID: 54095
Int'l Code: 2022-136AW
Perigee: 546.1 km
Apogee: 547.7 km
Inclination: 53.2 °
Period: 95.4 minutes
Semi major axis: 6917 km
RCS: Unknown
Launch date: October 20, 2022
Source: United States (US)
Launch site: AIR FORCE EASTERN TEST RANGE (AFETR)
Your satellite tracking list
Your tracking list is empty




NASA's NSSDC Master Catalog

Two Line Element Set (TLE):
1 54095U 22136AW  25199.56381137 -.00000253  00000-0  21631-5 0  9996
2 54095  53.2185 304.8247 0001184  91.7348 268.3780 15.08839060151644
Source of the keplerian elements: AFSPC